Time,TemperatureF,DewpointF,PressureIn,WindDirection,WindDirectionDegrees,WindSpeedMPH,WindSpeedGustMPH,Humidity,HourlyPrecipIn,Conditions,Clouds,dailyrainin,SoftwareType,DateUTC
2013-06-08 00:02:00,51.7,45.4,29.93,ENE,68,0.0,0.0,79,0.00,,,0.00,WUHU216HW,2013-06-08 05:02:00,
2013-06-08 00:07:00,51.5,45.5,29.93,ENE,68,0.0,0.0,80,0.00,,,0.00,WUHU216HW,2013-06-08 05:07:00,
2013-06-08 00:12:00,51.5,45.5,29.93,ENE,68,0.0,0.0,80,0.00,,,0.00,WUHU216HW,2013-06-08 05:12:00,
2013-06-08 00:17:00,51.3,45.4,29.93,ENE,68,0.0,0.0,80,0.00,,,0.00,WUHU216HW,2013-06-08 05:17:00,
2013-06-08 00:22:00,51.1,45.2,29.93,ENE,68,0.0,0.0,80,0.00,,,0.00,WUHU216HW,2013-06-08 05:22:00,
2013-06-08 00:27:00,51.1,45.2,29.93,ENE,68,0.0,0.0,80,0.00,,,0.00,WUHU216HW,2013-06-08 05:27:00,
2013-06-08 00:32:00,51.1,45.2,29.93,ENE,68,0.0,0.0,80,0.00,,,0.00,WUHU216HW,2013-06-08 05:32:00,
2013-06-08 00:37:00,51.1,45.2,29.92,ENE,68,0.0,0.0,80,0.00,,,0.00,WUHU216HW,2013-06-08 05:37:00,
2013-06-08 00:42:00,50.9,45.0,29.92,ENE,68,0.0,0.0,80,0.00,,,0.00,WUHU216HW,2013-06-08 05:42:00,
2013-06-08 00:47:00,50.8,45.1,29.92,ENE,68,0.0,0.0,81,0.00,,,0.00,WUHU216HW,2013-06-08 05:47:00,
2013-06-08 00:52:00,50.8,45.1,29.92,ENE,68,0.0,0.0,81,0.00,,,0.00,WUHU216HW,2013-06-08 05:52:00,
2013-06-08 00:57:00,50.6,44.9,29.93,ENE,68,0.5,0.5,81,0.00,,,0.00,WUHU216HW,2013-06-08 05:57:00,
2013-06-08 01:02:00,50.4,45.1,29.92,ENE,68,0.0,0.5,82,0.00,,,0.00,WUHU216HW,2013-06-08 06:02:00,
2013-06-08 01:07:00,50.4,45.1,29.92,ENE,68,0.2,0.5,82,0.00,,,0.00,WUHU216HW,2013-06-08 06:07:00,
2013-06-08 01:12:00,50.2,44.9,29.92,ENE,68,0.0,0.2,82,0.00,,,0.00,WUHU216HW,2013-06-08 06:12:00,
2013-06-08 01:17:00,50.2,44.9,29.93,ENE,68,0.0,0.0,82,0.00,,,0.00,WUHU216HW,2013-06-08 06:17:00,
2013-06-08 01:22:00,50.0,44.7,29.93,ENE,68,0.0,0.0,82,0.00,,,0.00,WUHU216HW,2013-06-08 06:22:00,
2013-06-08 01:27:00,50.0,44.7,29.93,ENE,68,0.0,0.0,82,0.00,,,0.00,WUHU216HW,2013-06-08 06:27:00,
2013-06-08 01:32:00,50.0,44.7,29.93,ENE,68,0.0,0.0,82,0.00,,,0.00,WUHU216HW,2013-06-08 06:32:00,
2013-06-08 01:37:00,50.0,45.0,29.93,ENE,68,0.0,0.0,83,0.00,,,0.00,WUHU216HW,2013-06-08 06:37:00,
2013-06-08 01:42:00,49.9,44.8,29.92,ENE,68,0.0,0.0,83,0.00,,,0.00,WUHU216HW,2013-06-08 06:42:00,
2013-06-08 01:47:00,49.7,44.6,29.92,ENE,68,0.0,0.0,83,0.00,,,0.00,WUHU216HW,2013-06-08 06:47:00,
2013-06-08 01:52:00,49.7,44.6,29.92,ENE,68,0.0,0.0,83,0.00,,,0.00,WUHU216HW,2013-06-08 06:52:00,
2013-06-08 01:57:00,49.7,44.6,29.92,ENE,68,0.0,0.0,83,0.00,,,0.00,WUHU216HW,2013-06-08 06:57:00,
2013-06-08 02:02:00,49.7,44.6,29.92,ENE,68,0.0,0.0,83,0.00,,,0.00,WUHU216HW,2013-06-08 07:02:00,
2013-06-08 02:07:00,49.5,44.5,29.92,ENE,68,0.0,0.0,83,0.00,,,0.00,WUHU216HW,2013-06-08 07:07:00,
2013-06-08 02:12:00,49.5,44.8,29.92,ENE,68,0.0,0.0,84,0.00,,,0.00,WUHU216HW,2013-06-08 07:12:00,
2013-06-08 02:17:00,49.7,45.0,29.92,ENE,68,0.0,0.0,84,0.00,,,0.00,WUHU216HW,2013-06-08 07:17:00,
2013-06-08 02:22:00,49.7,45.0,29.92,ENE,68,0.0,0.0,84,0.00,,,0.00,WUHU216HW,2013-06-08 07:22:00,
2013-06-08 02:27:00,49.7,45.0,29.92,ENE,68,0.0,0.0,84,0.00,,,0.00,WUHU216HW,2013-06-08 07:27:00,
2013-06-08 02:32:00,49.7,45.0,29.92,ENE,68,0.0,0.0,84,0.00,,,0.00,WUHU216HW,2013-06-08 07:32:00,
2013-06-08 02:37:00,49.7,45.0,29.92,ENE,68,0.0,0.0,84,0.00,,,0.00,WUHU216HW,2013-06-08 07:37:00,
2013-06-08 02:42:00,49.7,45.3,29.92,ENE,68,0.0,0.5,85,0.00,,,0.00,WUHU216HW,2013-06-08 07:42:00,
2013-06-08 02:47:00,49.7,45.3,29.92,ENE,68,0.0,0.5,85,0.00,,,0.00,WUHU216HW,2013-06-08 07:47:00,
2013-06-08 02:52:00,49.7,45.3,29.92,ENE,68,0.0,0.0,85,0.00,,,0.00,WUHU216HW,2013-06-08 07:52:00,
2013-06-08 02:57:00,49.7,45.3,29.92,ENE,68,0.0,0.0,85,0.00,,,0.00,WUHU216HW,2013-06-08 07:57:00,
2013-06-08 03:02:00,49.7,45.3,29.92,ENE,68,0.0,0.0,85,0.00,,,0.00,WUHU216HW,2013-06-08 08:02:00,
2013-06-08 03:07:00,49.7,45.3,29.92,ENE,68,0.0,0.0,85,0.00,,,0.00,WUHU216HW,2013-06-08 08:07:00,
2013-06-08 03:12:00,49.7,45.3,29.92,ENE,68,0.0,0.5,85,0.00,,,0.00,WUHU216HW,2013-06-08 08:12:00,
2013-06-08 03:17:00,49.7,45.3,29.92,ENE,68,0.0,0.5,85,0.00,,,0.00,WUHU216HW,2013-06-08 08:17:00,
2013-06-08 03:22:00,49.7,45.6,29.93,ENE,68,0.0,0.0,86,0.00,,,0.00,WUHU216HW,2013-06-08 08:22:00,
2013-06-08 03:27:00,49.7,45.6,29.93,East,90,0.5,0.5,86,0.00,,,0.00,WUHU216HW,2013-06-08 08:27:00,
2013-06-08 03:32:00,49.7,45.6,29.93,SE,135,0.8,0.8,86,0.00,,,0.00,WUHU216HW,2013-06-08 08:32:00,
2013-06-08 03:37:00,49.7,45.6,29.94,SE,135,0.5,2.4,86,0.00,,,0.00,WUHU216HW,2013-06-08 08:37:00,
2013-06-08 03:42:00,49.7,45.6,29.94,SE,135,0.5,2.4,86,0.00,,,0.00,WUHU216HW,2013-06-08 08:42:00,
2013-06-08 03:47:00,49.7,45.6,29.94,SE,135,0.0,0.8,86,0.00,,,0.00,WUHU216HW,2013-06-08 08:47:00,
2013-06-08 03:52:00,49.9,45.8,29.94,SE,135,0.0,0.8,86,0.00,,,0.00,WUHU216HW,2013-06-08 08:52:00,
2013-06-08 03:57:00,49.9,45.8,29.94,SE,135,0.0,0.0,86,0.00,,,0.00,WUHU216HW,2013-06-08 08:57:00,
2013-06-08 04:02:00,50.0,45.9,29.94,SE,135,0.0,0.0,86,0.00,,,0.00,WUHU216HW,2013-06-08 09:02:00,
2013-06-08 04:07:00,50.0,45.9,29.94,SE,135,0.0,1.1,86,0.00,,,0.00,WUHU216HW,2013-06-08 09:07:00,
2013-06-08 04:12:00,50.0,45.9,29.94,SE,135,0.0,1.1,86,0.00,,,0.00,WUHU216HW,2013-06-08 09:12:00,
2013-06-08 04:17:00,50.0,45.9,29.94,SE,135,0.0,0.0,86,0.00,,,0.00,WUHU216HW,2013-06-08 09:17:00,
2013-06-08 04:22:00,50.0,45.9,29.94,SE,135,0.5,0.5,86,0.00,,,0.00,WUHU216HW,2013-06-08 09:22:00,
2013-06-08 04:27:00,50.0,45.9,29.94,SE,135,0.0,0.5,86,0.00,,,0.00,WUHU216HW,2013-06-08 09:27:00,
2013-06-08 04:32:00,50.0,45.9,29.94,SE,135,0.0,0.0,86,0.00,,,0.00,WUHU216HW,2013-06-08 09:32:00,
2013-06-08 04:37:00,49.9,45.8,29.94,SE,135,0.0,0.0,86,0.00,,,0.00,WUHU216HW,2013-06-08 09:37:00,
2013-06-08 04:42:00,49.9,45.8,29.94,SE,135,0.0,0.0,86,0.00,,,0.00,WUHU216HW,2013-06-08 09:42:00,
2013-06-08 04:47:00,49.7,45.6,29.94,SE,135,0.0,0.0,86,0.00,,,0.00,WUHU216HW,2013-06-08 09:47:00,
2013-06-08 04:52:00,49.7,45.6,29.94,SE,135,0.5,0.5,86,0.00,,,0.00,WUHU216HW,2013-06-08 09:52:00,
2013-06-08 04:57:00,49.7,45.6,29.94,SE,135,0.0,0.5,86,0.00,,,0.00,WUHU216HW,2013-06-08 09:57:00,
2013-06-08 05:02:00,49.5,45.1,29.94,SE,135,0.0,0.0,85,0.00,,,0.00,WUHU216HW,2013-06-08 10:02:00,
2013-06-08 05:07:00,49.5,45.1,29.94,SE,135,0.0,0.0,85,0.00,,,0.00,WUHU216HW,2013-06-08 10:07:00,
2013-06-08 05:12:00,49.5,45.1,29.94,SE,135,0.0,0.0,85,0.00,,,0.00,WUHU216HW,2013-06-08 10:12:00,
2013-06-08 05:17:00,49.5,45.1,29.94,SE,135,0.5,0.5,85,0.00,,,0.00,WUHU216HW,2013-06-08 10:17:00,
2013-06-08 05:22:00,49.5,45.1,29.94,SE,135,0.0,0.5,85,0.00,,,0.00,WUHU216HW,2013-06-08 10:22:00,
2013-06-08 05:28:00,49.5,45.5,29.94,SE,135,0.0,0.0,86,0.00,,,0.00,WUHU216HW,2013-06-08 10:28:00,
2013-06-08 05:33:00,49.5,45.5,29.94,SE,135,0.0,0.0,86,0.00,,,0.00,WUHU216HW,2013-06-08 10:33:00,
2013-06-08 05:38:00,49.5,45.5,29.94,SE,135,0.2,0.2,86,0.00,,,0.00,WUHU216HW,2013-06-08 10:38:00,
2013-06-08 05:43:00,49.5,45.5,29.94,SE,135,0.0,0.2,86,0.00,,,0.00,WUHU216HW,2013-06-08 10:43:00,
2013-06-08 05:48:00,49.5,45.5,29.95,SE,135,0.0,0.2,86,0.00,,,0.00,WUHU216HW,2013-06-08 10:48:00,
2013-06-08 05:53:00,49.7,45.6,29.95,SE,135,0.0,0.0,86,0.00,,,0.00,WUHU216HW,2013-06-08 10:53:00,
2013-06-08 05:58:00,49.7,45.6,29.96,SE,135,0.0,0.0,86,0.00,,,0.00,WUHU216HW,2013-06-08 10:58:00,
2013-06-08 06:03:00,49.9,45.8,29.96,SE,135,0.0,0.0,86,0.00,,,0.00,WUHU216HW,2013-06-08 11:03:00,
2013-06-08 06:08:00,49.9,45.8,29.96,SE,135,0.0,0.0,86,0.00,,,0.00,WUHU216HW,2013-06-08 11:08:00,
2013-06-08 06:13:00,50.0,46.3,29.96,SE,135,0.0,0.0,87,0.00,,,0.00,WUHU216HW,2013-06-08 11:13:00,
2013-06-08 06:18:00,50.2,46.5,29.96,SE,135,0.0,0.0,87,0.00,,,0.00,WUHU216HW,2013-06-08 11:18:00,
2013-06-08 06:23:00,50.4,46.6,29.96,SE,135,0.0,0.0,87,0.00,,,0.00,WUHU216HW,2013-06-08 11:23:00,
2013-06-08 06:28:00,50.8,47.0,29.97,SE,135,0.0,0.0,87,0.00,,,0.00,WUHU216HW,2013-06-08 11:28:00,
2013-06-08 06:33:00,50.9,47.4,29.97,SE,135,0.0,0.0,88,0.00,,,0.00,WUHU216HW,2013-06-08 11:33:00,
2013-06-08 06:38:00,51.3,47.8,29.97,SE,135,0.0,0.0,88,0.00,,,0.00,WUHU216HW,2013-06-08 11:38:00,
2013-06-08 06:43:00,52.0,48.9,29.97,SE,135,0.2,0.2,89,0.00,,,0.00,WUHU216HW,2013-06-08 11:43:00,
2013-06-08 06:47:00,54.7,52.1,29.97,SE,135,0.2,0.5,91,0.00,,,0.00,WUHU216HW,2013-06-08 11:47:00,
2013-06-08 06:52:00,58.9,55.6,29.97,SE,135,0.0,0.5,89,0.00,,,0.00,WUHU216HW,2013-06-08 11:52:00,
2013-06-08 06:57:00,61.0,55.9,29.97,SE,135,0.0,0.2,83,0.00,,,0.00,WUHU216HW,2013-06-08 11:57:00,
2013-06-08 07:02:00,61.9,56.1,29.97,SE,135,0.0,0.0,81,0.00,,,0.00,WUHU216HW,2013-06-08 12:02:00,
2013-06-08 07:08:00,61.7,55.2,29.97,SE,135,0.0,0.2,79,0.00,,,0.00,WUHU216HW,2013-06-08 12:08:00,
2013-06-08 07:13:00,61.0,54.2,29.98,SE,135,0.0,0.2,78,0.00,,,0.00,WUHU216HW,2013-06-08 12:13:00,
2013-06-08 07:18:00,60.7,54.2,29.98,SE,135,0.0,0.0,79,0.00,,,0.00,WUHU216HW,2013-06-08 12:18:00,
2013-06-08 07:22:00,60.3,53.5,29.98,SE,135,0.0,0.0,78,0.00,,,0.00,WUHU216HW,2013-06-08 12:22:00,
2013-06-08 07:28:00,60.3,53.8,29.97,SE,135,0.0,0.0,79,0.00,,,0.00,WUHU216HW,2013-06-08 12:28:00,
2013-06-08 07:33:00,60.3,53.5,29.97,ESE,113,0.0,0.8,78,0.00,,,0.00,WUHU216HW,2013-06-08 12:33:00,
2013-06-08 07:38:00,60.5,52.9,29.97,NNE,23,1.6,1.6,76,0.00,,,0.00,WUHU216HW,2013-06-08 12:38:00,
2013-06-08 07:43:00,60.5,52.9,29.98,NNE,23,0.3,1.6,76,0.00,,,0.00,WUHU216HW,2013-06-08 12:43:00,
2013-06-08 07:48:00,60.8,53.3,29.98,NNE,23,0.0,1.6,76,0.00,,,0.00,WUHU216HW,2013-06-08 12:48:00,
2013-06-08 07:53:00,61.4,53.7,29.98,NNE,23,0.0,0.0,76,0.00,,,0.00,WUHU216HW,2013-06-08 12:53:00,
2013-06-08 07:58:00,61.9,54.3,29.98,NNE,23,0.0,0.0,76,0.00,,,0.00,WUHU216HW,2013-06-08 12:58:00,
2013-06-08 08:03:00,62.3,54.2,29.98,NNE,23,0.0,0.0,75,0.00,,,0.00,WUHU216HW,2013-06-08 13:03:00,
2013-06-08 08:08:00,62.8,54.7,29.98,NNE,23,0.0,0.0,75,0.00,,,0.00,WUHU216HW,2013-06-08 13:08:00,
2013-06-08 08:13:00,63.0,54.5,29.99,North,0,0.0,0.0,74,0.00,,,0.00,WUHU216HW,2013-06-08 13:13:00,
2013-06-08 08:18:00,63.0,54.5,29.99,SSE,158,1.3,1.3,74,0.00,,,0.00,WUHU216HW,2013-06-08 13:18:00,
2013-06-08 08:23:00,63.2,54.7,29.98,SSE,158,0.6,1.3,74,0.00,,,0.00,WUHU216HW,2013-06-08 13:23:00,
2013-06-08 08:28:00,63.4,54.9,29.99,South,184,0.4,1.1,74,0.00,,,0.00,WUHU216HW,2013-06-08 13:28:00,
2013-06-08 08:33:00,63.4,54.9,29.99,SSW,203,0.0,0.5,74,0.00,,,0.00,WUHU216HW,2013-06-08 13:33:00,
2013-06-08 08:38:00,63.7,55.3,29.99,SSW,203,0.5,0.5,74,0.00,,,0.00,WUHU216HW,2013-06-08 13:38:00,
2013-06-08 08:43:00,63.9,55.1,29.99,SSW,203,0.0,0.5,73,0.00,,,0.00,WUHU216HW,2013-06-08 13:43:00,
2013-06-08 08:48:00,64.1,55.3,29.99,South,180,0.0,0.5,73,0.00,,,0.00,WUHU216HW,2013-06-08 13:48:00,
2013-06-08 08:53:00,64.4,55.6,29.99,South,180,0.0,0.0,73,0.00,,,0.00,WUHU216HW,2013-06-08 13:53:00,
2013-06-08 08:58:00,64.6,55.5,29.99,SSE,158,0.5,0.5,72,0.00,,,0.00,WUHU216HW,2013-06-08 13:58:00,
2013-06-08 09:03:00,64.8,55.6,29.99,SW,225,1.3,1.3,72,0.00,,,0.00,WUHU216HW,2013-06-08 14:03:00,
2013-06-08 09:08:00,65.0,55.8,29.99,South,180,0.0,1.3,72,0.00,,,0.00,WUHU216HW,2013-06-08 14:08:00,
2013-06-08 09:13:00,65.2,55.9,29.99,SSW,203,0.6,1.3,72,0.00,,,0.00,WUHU216HW,2013-06-08 14:13:00,
2013-06-08 09:18:00,65.5,55.9,29.99,SSW,203,0.3,1.3,71,0.00,,,0.00,WUHU216HW,2013-06-08 14:18:00,
2013-06-08 09:23:00,65.7,56.1,29.99,SE,135,2.4,2.4,71,0.00,,,0.00,WUHU216HW,2013-06-08 14:23:00,
2013-06-08 09:28:00,66.1,56.3,29.99,SSW,203,0.6,4.1,71,0.00,,,0.00,WUHU216HW,2013-06-08 14:28:00,
2013-06-08 09:33:00,66.2,56.2,29.99,West,270,1.2,4.1,70,0.00,,,0.00,WUHU216HW,2013-06-08 14:33:00,
2013-06-08 09:38:00,66.6,56.5,29.99,SW,225,0.5,1.6,70,0.00,,,0.00,WUHU216HW,2013-06-08 14:38:00,
2013-06-08 09:43:00,66.8,56.7,29.99,SSE,158,3.3,4.1,70,0.00,,,0.00,WUHU216HW,2013-06-08 14:43:00,
2013-06-08 09:48:00,67.0,56.4,29.99,SE,135,0.0,4.1,69,0.00,,,0.00,WUHU216HW,2013-06-08 14:48:00,
2013-06-08 09:53:00,67.1,55.8,29.99,NE,34,1.6,3.0,67,0.00,,,0.00,WUHU216HW,2013-06-08 14:53:00,
2013-06-08 09:58:00,67.1,54.9,29.99,NNW,338,0.5,3.0,65,0.00,,,0.00,WUHU216HW,2013-06-08 14:58:00,
2013-06-08 10:03:00,67.3,55.1,29.99,North,0,2.4,3.7,65,0.00,,,0.00,WUHU216HW,2013-06-08 15:03:00,
2013-06-08 10:08:00,67.3,54.7,29.99,NNE,23,1.1,3.7,64,0.00,,,0.00,WUHU216HW,2013-06-08 15:08:00,
2013-06-08 10:13:00,67.3,53.5,29.98,NNW,347,1.5,5.6,61,0.00,,,0.00,WUHU216HW,2013-06-08 15:13:00,
2013-06-08 10:18:00,67.3,53.8,29.98,North,4,1.6,5.6,62,0.00,,,0.00,WUHU216HW,2013-06-08 15:18:00,
2013-06-08 10:23:00,67.3,53.5,29.98,NNW,338,2.2,3.0,61,0.00,,,0.00,WUHU216HW,2013-06-08 15:23:00,
2013-06-08 10:28:00,67.3,52.0,29.98,NE,45,4.8,4.8,58,0.00,,,0.00,WUHU216HW,2013-06-08 15:28:00,
2013-06-08 10:33:00,67.3,53.5,29.98,North,0,5.6,5.6,61,0.00,,,0.00,WUHU216HW,2013-06-08 15:33:00,
2013-06-08 10:38:00,67.5,52.7,29.97,NNW,337,1.0,5.6,59,0.00,,,0.00,WUHU216HW,2013-06-08 15:38:00,
2013-06-08 10:43:00,67.5,52.7,29.97,NNW,338,1.9,5.6,59,0.00,,,0.00,WUHU216HW,2013-06-08 15:43:00,
2013-06-08 10:48:00,67.5,53.2,29.97,NNE,23,4.1,4.8,60,0.00,,,0.00,WUHU216HW,2013-06-08 15:48:00,
2013-06-08 10:53:00,67.7,52.8,29.97,North,8,3.5,5.9,59,0.00,,,0.00,WUHU216HW,2013-06-08 15:53:00,
2013-06-08 10:58:00,68.0,52.2,29.97,NW,317,2.0,5.9,57,0.00,,,0.00,WUHU216HW,2013-06-08 15:58:00,
2013-06-08 11:03:00,68.2,53.4,29.98,North,0,1.9,3.5,59,0.00,,,0.00,WUHU216HW,2013-06-08 16:03:00,
2013-06-08 11:07:00,68.6,53.7,29.98,NNW,333,1.4,4.6,59,0.00,,,0.00,WUHU216HW,2013-06-08 16:07:00,
2013-06-08 11:13:00,68.8,53.4,29.98,NNE,23,5.2,5.6,58,0.00,,,0.00,WUHU216HW,2013-06-08 16:13:00,
2013-06-08 11:18:00,68.8,53.4,29.98,NW,315,1.3,5.6,58,0.00,,,0.00,WUHU216HW,2013-06-08 16:18:00,
2013-06-08 11:23:00,68.8,53.4,29.98,NW,325,1.3,5.2,58,0.00,,,0.00,WUHU216HW,2013-06-08 16:23:00,
2013-06-08 11:28:00,68.9,53.6,29.98,North,0,4.8,4.8,58,0.00,,,0.00,WUHU216HW,2013-06-08 16:28:00,
2013-06-08 11:33:00,68.9,54.0,29.98,NNE,23,4.1,6.7,59,0.00,,,0.00,WUHU216HW,2013-06-08 16:33:00,
2013-06-08 11:38:00,68.9,54.0,29.98,North,0,1.1,6.7,59,0.00,,,0.00,WUHU216HW,2013-06-08 16:38:00,
2013-06-08 11:43:00,69.1,54.2,29.98,NW,315,2.2,4.3,59,0.00,,,0.00,WUHU216HW,2013-06-08 16:43:00,
2013-06-08 11:48:00,69.3,54.9,29.98,North,352,0.9,4.1,60,0.00,,,0.00,WUHU216HW,2013-06-08 16:48:00,
2013-06-08 11:53:00,69.7,54.7,29.98,NW,323,2.0,4.1,59,0.00,,,0.00,WUHU216HW,2013-06-08 16:53:00,
2013-06-08 11:58:00,69.8,53.9,29.98,NW,315,2.2,3.0,57,0.00,,,0.00,WUHU216HW,2013-06-08 16:58:00,
2013-06-08 12:03:00,70.2,55.3,29.98,North,0,2.2,3.0,59,0.00,,,0.00,WUHU216HW,2013-06-08 17:03:00,
2013-06-08 12:08:00,70.4,55.5,29.98,NNW,335,1.4,2.4,59,0.00,,,0.00,WUHU216HW,2013-06-08 17:08:00,
2013-06-08 12:12:00,70.7,55.7,29.98,NNW,348,2.7,5.4,59,0.00,,,0.00,WUHU216HW,2013-06-08 17:12:00,
2013-06-08 12:17:00,70.7,55.7,29.98,North,0,4.1,5.4,59,0.00,,,0.00,WUHU216HW,2013-06-08 17:17:00,
2013-06-08 12:22:00,70.7,55.7,29.98,NNW,341,1.9,4.8,59,0.00,,,0.00,WUHU216HW,2013-06-08 17:22:00,
2013-06-08 12:27:00,70.7,54.7,29.98,North,0,2.4,4.1,57,0.00,,,0.00,WUHU216HW,2013-06-08 17:27:00,
2013-06-08 12:32:00,70.4,53.9,29.98,North,351,2.9,5.6,56,0.00,,,0.00,WUHU216HW,2013-06-08 17:32:00,
2013-06-08 12:37:00,70.2,54.3,29.98,NE,45,7.0,7.0,57,0.00,,,0.00,WUHU216HW,2013-06-08 17:37:00,
2013-06-08 12:42:00,70.6,55.1,29.98,North,2,1.8,7.0,58,0.00,,,0.00,WUHU216HW,2013-06-08 17:42:00,
2013-06-08 12:47:00,70.4,54.5,29.98,NNE,21,3.1,7.0,57,0.00,,,0.00,WUHU216HW,2013-06-08 17:47:00,
2013-06-08 12:52:00,70.4,54.5,29.98,NNW,338,2.2,5.6,57,0.00,,,0.00,WUHU216HW,2013-06-08 17:52:00,
2013-06-08 12:57:00,70.2,54.3,29.98,NNW,347,2.5,5.6,57,0.00,,,0.00,WUHU216HW,2013-06-08 17:57:00,
2013-06-08 13:02:00,70.0,53.6,29.98,NE,45,4.8,4.8,56,0.00,,,0.00,WUHU216HW,2013-06-08 18:02:00,
2013-06-08 13:07:00,70.2,53.7,29.98,NNE,23,5.2,5.6,56,0.00,,,0.00,WUHU216HW,2013-06-08 18:07:00,
2013-06-08 13:12:00,70.4,53.9,29.98,North,358,4.3,8.3,56,0.00,,,0.00,WUHU216HW,2013-06-08 18:12:00,
2013-06-08 13:17:00,70.2,53.3,29.98,NNW,341,2.3,8.3,55,0.00,,,0.00,WUHU216HW,2013-06-08 18:17:00,
2013-06-08 13:22:00,70.0,52.1,29.98,NNW,338,4.1,6.1,53,0.00,,,0.00,WUHU216HW,2013-06-08 18:22:00,
2013-06-08 13:27:00,70.0,53.1,29.98,North,0,3.0,10.0,55,0.00,,,0.00,WUHU216HW,2013-06-08 18:27:00,
2013-06-08 13:32:00,70.6,54.1,29.97,North,8,1.8,10.0,56,0.00,,,0.00,WUHU216HW,2013-06-08 18:32:00,
2013-06-08 13:37:00,71.1,54.1,29.98,North,6,2.1,5.6,55,0.00,,,0.00,WUHU216HW,2013-06-08 18:37:00,
2013-06-08 13:42:00,71.3,54.2,29.97,North,0,5.4,5.6,55,0.00,,,0.00,WUHU216HW,2013-06-08 18:42:00,
2013-06-08 13:47:00,71.1,53.6,29.97,North,359,3.3,5.4,54,0.00,,,0.00,WUHU216HW,2013-06-08 18:47:00,
2013-06-08 13:52:00,70.7,52.8,29.98,North,0,4.1,5.4,53,0.00,,,0.00,WUHU216HW,2013-06-08 18:52:00,
2013-06-08 13:57:00,70.7,52.8,29.98,North,0,4.1,6.5,53,0.00,,,0.00,WUHU216HW,2013-06-08 18:57:00,
2013-06-08 14:02:00,70.7,52.2,29.97,NNW,337,1.3,6.5,52,0.00,,,0.00,WUHU216HW,2013-06-08 19:02:00,
2013-06-08 14:07:00,70.6,52.6,29.97,North,0,2.6,4.1,53,0.00,,,0.00,WUHU216HW,2013-06-08 19:07:00,
2013-06-08 14:12:00,70.4,52.4,29.97,NNW,334,2.0,5.6,53,0.00,,,0.00,WUHU216HW,2013-06-08 19:12:00,
2013-06-08 14:17:00,70.0,52.1,29.97,North,0,4.1,5.6,53,0.00,,,0.00,WUHU216HW,2013-06-08 19:17:00,
2013-06-08 14:22:00,69.8,51.9,29.97,North,0,2.2,6.1,53,0.00,,,0.00,WUHU216HW,2013-06-08 19:22:00,
2013-06-08 14:27:00,70.0,52.1,29.97,NNW,338,3.0,6.1,53,0.00,,,0.00,WUHU216HW,2013-06-08 19:27:00,
2013-06-08 14:32:00,70.2,52.7,29.97,North,6,4.1,6.5,54,0.00,,,0.00,WUHU216HW,2013-06-08 19:32:00,
2013-06-08 14:37:00,70.6,52.6,29.98,North,0,3.7,6.5,53,0.00,,,0.00,WUHU216HW,2013-06-08 19:37:00,
2013-06-08 14:42:00,70.9,52.4,29.97,NNW,338,1.7,6.7,52,0.00,,,0.00,WUHU216HW,2013-06-08 19:42:00,
2013-06-08 14:47:00,71.1,53.0,29.98,NE,45,4.3,6.7,53,0.00,,,0.00,WUHU216HW,2013-06-08 19:47:00,
2013-06-08 14:52:00,71.1,52.0,29.98,North,353,2.4,8.3,51,0.00,,,0.00,WUHU216HW,2013-06-08 19:52:00,
2013-06-08 14:57:00,70.7,51.8,29.98,North,353,3.4,8.3,51,0.00,,,0.00,WUHU216HW,2013-06-08 19:57:00,
2013-06-08 15:02:00,70.2,51.8,29.98,North,8,3.5,6.1,52,0.00,,,0.00,WUHU216HW,2013-06-08 20:02:00,
2013-06-08 15:07:00,70.0,51.6,29.98,NNW,345,1.3,6.1,52,0.00,,,0.00,WUHU216HW,2013-06-08 20:07:00,
2013-06-08 15:12:00,70.2,52.2,29.97,NNE,31,3.2,7.6,53,0.00,,,0.00,WUHU216HW,2013-06-08 20:12:00,
2013-06-08 15:17:00,70.4,52.4,29.98,NE,45,5.4,7.6,53,0.00,,,0.00,WUHU216HW,2013-06-08 20:17:00,
2013-06-08 15:22:00,70.2,51.8,29.97,North,10,2.7,9.1,52,0.00,,,0.00,WUHU216HW,2013-06-08 20:22:00,
2013-06-08 15:27:00,70.2,51.2,29.98,North,0,3.5,9.1,51,0.00,,,0.00,WUHU216HW,2013-06-08 20:27:00,
2013-06-08 15:32:00,70.2,51.2,29.98,North,0,4.8,8.3,51,0.00,,,0.00,WUHU216HW,2013-06-08 20:32:00,
2013-06-08 15:37:00,69.7,51.2,29.98,NNE,18,3.8,8.3,52,0.00,,,0.00,WUHU216HW,2013-06-08 20:37:00,
2013-06-08 15:42:00,69.8,51.9,29.98,NNE,22,3.9,6.5,53,0.00,,,0.00,WUHU216HW,2013-06-08 20:42:00,
2013-06-08 15:47:00,70.2,52.2,29.97,ENE,57,2.5,6.5,53,0.00,,,0.00,WUHU216HW,2013-06-08 20:47:00,
2013-06-08 15:52:00,69.8,51.0,29.98,NNE,23,3.2,8.0,51,0.00,,,0.00,WUHU216HW,2013-06-08 20:52:00,
2013-06-08 15:57:00,69.5,51.1,29.98,North,0,3.8,8.0,52,0.00,,,0.00,WUHU216HW,2013-06-08 20:57:00,
2013-06-08 16:02:00,69.5,51.1,29.98,NNE,23,3.5,5.9,52,0.00,,,0.00,WUHU216HW,2013-06-08 21:02:00,
2013-06-08 16:07:00,69.5,51.1,29.98,North,0,5.6,11.0,52,0.00,,,0.00,WUHU216HW,2013-06-08 21:07:00,
2013-06-08 16:12:00,69.5,51.1,29.98,NNE,19,4.6,11.0,52,0.00,,,0.00,WUHU216HW,2013-06-08 21:12:00,
2013-06-08 16:17:00,69.7,51.2,29.98,NNE,23,2.2,8.0,52,0.00,,,0.00,WUHU216HW,2013-06-08 21:17:00,
2013-06-08 16:22:00,69.5,51.6,29.98,North,0,1.6,5.6,53,0.00,,,0.00,WUHU216HW,2013-06-08 21:22:00,
2013-06-08 16:27:00,69.5,51.1,29.98,North,0,1.9,4.6,52,0.00,,,0.00,WUHU216HW,2013-06-08 21:27:00,
2013-06-08 16:32:00,69.7,51.2,29.98,NNE,26,3.2,6.5,52,0.00,,,0.00,WUHU216HW,2013-06-08 21:32:00,
2013-06-08 16:38:00,69.8,51.4,29.98,North,4,4.3,6.5,52,0.00,,,0.00,WUHU216HW,2013-06-08 21:38:00,
2013-06-08 16:43:00,69.3,51.0,29.98,NNE,15,1.7,5.6,52,0.00,,,0.00,WUHU216HW,2013-06-08 21:43:00,
2013-06-08 16:48:00,68.9,50.6,29.98,NNE,23,1.9,4.1,52,0.00,,,0.00,WUHU216HW,2013-06-08 21:48:00,
2013-06-08 16:53:00,68.8,51.0,29.99,North,9,1.5,2.4,53,0.00,,,0.00,WUHU216HW,2013-06-08 21:53:00,
2013-06-08 16:58:00,69.1,51.2,29.99,North,0,3.7,5.6,53,0.00,,,0.00,WUHU216HW,2013-06-08 21:58:00,
2013-06-08 17:03:00,69.3,51.0,29.99,NNE,18,3.9,9.4,52,0.00,,,0.00,WUHU216HW,2013-06-08 22:03:00,
2013-06-08 17:08:00,69.1,50.2,29.99,North,357,2.9,9.4,51,0.00,,,0.00,WUHU216HW,2013-06-08 22:08:00,
2013-06-08 17:13:00,68.8,50.4,29.99,North,0,4.3,6.5,52,0.00,,,0.00,WUHU216HW,2013-06-08 22:13:00,
2013-06-08 17:18:00,68.8,50.0,29.99,North,0,3.0,6.5,51,0.00,,,0.00,WUHU216HW,2013-06-08 22:18:00,
2013-06-08 17:23:00,68.6,49.2,29.99,North,0,2.8,5.6,50,0.00,,,0.00,WUHU216HW,2013-06-08 22:23:00,
2013-06-08 17:28:00,68.2,49.4,29.99,North,0,3.2,6.1,51,0.00,,,0.00,WUHU216HW,2013-06-08 22:28:00,
2013-06-08 17:33:00,68.0,48.2,29.99,NNE,23,7.2,7.8,49,0.00,,,0.00,WUHU216HW,2013-06-08 22:33:00,
2013-06-08 17:38:00,67.7,47.3,29.99,NNE,23,3.7,8.0,48,0.00,,,0.00,WUHU216HW,2013-06-08 22:38:00,
2013-06-08 17:43:00,67.5,48.3,29.99,North,357,1.6,8.0,50,0.00,,,0.00,WUHU216HW,2013-06-08 22:43:00,
2013-06-08 17:48:00,67.7,48.4,29.99,North,6,3.6,6.5,50,0.00,,,0.00,WUHU216HW,2013-06-08 22:48:00,
2013-06-08 17:53:00,67.9,48.1,29.99,North,0,4.8,6.5,49,0.00,,,0.00,WUHU216HW,2013-06-08 22:53:00,
2013-06-08 17:58:00,67.7,47.3,29.99,NNE,24,4.1,6.5,48,0.00,,,0.00,WUHU216HW,2013-06-08 22:58:00,
2013-06-08 18:03:00,67.7,47.3,29.99,NNE,21,1.7,6.5,48,0.00,,,0.00,WUHU216HW,2013-06-08 23:03:00,
2013-06-08 18:08:00,67.9,48.1,29.99,North,0,2.4,5.6,49,0.00,,,0.00,WUHU216HW,2013-06-08 23:08:00,
2013-06-08 18:13:00,67.9,48.6,29.99,NNE,23,4.1,5.2,50,0.00,,,0.00,WUHU216HW,2013-06-08 23:13:00,
2013-06-08 18:18:00,67.7,49.0,29.99,NNE,22,2.0,5.2,51,0.00,,,0.00,WUHU216HW,2013-06-08 23:18:00,
2013-06-08 18:23:00,67.7,49.0,29.99,NNE,29,1.7,4.1,51,0.00,,,0.00,WUHU216HW,2013-06-08 23:23:00,
2013-06-08 18:28:00,67.5,48.8,29.99,NNE,23,1.6,3.5,51,0.00,,,0.00,WUHU216HW,2013-06-08 23:28:00,
2013-06-08 18:33:00,67.5,49.2,29.99,North,0,0.7,3.5,52,0.00,,,0.00,WUHU216HW,2013-06-08 23:33:00,
2013-06-08 18:38:00,67.3,48.6,30.00,North,4,0.7,2.4,51,0.00,,,0.00,WUHU216HW,2013-06-08 23:38:00,
2013-06-08 18:43:00,67.3,48.6,30.00,North,0,1.9,3.0,51,0.00,,,0.00,WUHU216HW,2013-06-08 23:43:00,
2013-06-08 18:48:00,67.3,47.5,30.00,NNE,32,2.1,3.2,49,0.00,,,0.00,WUHU216HW,2013-06-08 23:48:00,
2013-06-08 18:53:00,67.1,47.3,30.00,NE,35,1.3,3.5,49,0.00,,,0.00,WUHU216HW,2013-06-08 23:53:00,
2013-06-08 18:58:00,67.1,47.3,30.00,ENE,76,1.4,3.5,49,0.00,,,0.00,WUHU216HW,2013-06-08 23:58:00,
2013-06-08 19:03:00,67.0,46.6,30.00,NNE,31,2.2,3.2,48,0.00,,,0.00,WUHU216HW,2013-06-09 00:03:00,
2013-06-08 19:08:00,66.8,45.3,30.00,NE,51,1.6,4.1,46,0.00,,,0.00,WUHU216HW,2013-06-09 00:08:00,
2013-06-08 19:13:00,66.8,44.6,30.00,NNE,23,2.4,4.1,45,0.00,,,0.00,WUHU216HW,2013-06-09 00:13:00,
2013-06-08 19:18:00,66.6,45.1,30.00,NNE,23,2.2,2.6,46,0.00,,,0.00,WUHU216HW,2013-06-09 00:18:00,
2013-06-08 19:23:00,66.4,42.6,29.99,NNE,23,2.6,4.1,42,0.00,,,0.00,WUHU216HW,2013-06-09 00:23:00,
2013-06-08 19:28:00,66.2,42.4,29.99,NE,47,2.0,4.1,42,0.00,,,0.00,WUHU216HW,2013-06-09 00:28:00,
2013-06-08 19:33:00,66.1,43.5,30.00,NNE,23,1.3,4.1,44,0.00,,,0.00,WUHU216HW,2013-06-09 00:33:00,
2013-06-08 19:38:00,65.9,42.1,30.00,NNE,23,3.0,4.1,42,0.00,,,0.00,WUHU216HW,2013-06-09 00:38:00,
2013-06-08 19:43:00,65.9,42.7,30.00,NE,45,1.3,3.0,43,0.00,,,0.00,WUHU216HW,2013-06-09 00:43:00,
2013-06-08 19:48:00,65.7,43.1,30.00,NNE,21,1.7,3.0,44,0.00,,,0.00,WUHU216HW,2013-06-09 00:48:00,
2013-06-08 19:53:00,65.5,42.3,30.00,ENE,60,1.5,3.0,43,0.00,,,0.00,WUHU216HW,2013-06-09 00:53:00,
2013-06-08 19:58:00,65.3,42.8,30.00,NNE,23,1.6,3.0,44,0.00,,,0.00,WUHU216HW,2013-06-09 00:58:00,
2013-06-08 20:03:00,65.2,42.6,30.00,NE,52,1.2,2.4,44,0.00,,,0.00,WUHU216HW,2013-06-09 01:03:00,
2013-06-08 20:08:00,65.2,43.2,30.00,ENE,68,0.8,2.4,45,0.00,,,0.00,WUHU216HW,2013-06-09 01:08:00,
2013-06-08 20:12:00,65.0,42.4,30.00,ENE,64,1.0,1.6,44,0.00,,,0.00,WUHU216HW,2013-06-09 01:12:00,
2013-06-08 20:17:00,64.8,42.9,30.00,ENE,68,0.9,1.3,45,0.00,,,0.00,WUHU216HW,2013-06-09 01:17:00,
2013-06-08 20:22:00,64.4,42.5,30.00,ENE,68,1.6,2.2,45,0.00,,,0.00,WUHU216HW,2013-06-09 01:22:00,
2013-06-08 20:27:00,64.4,42.5,30.00,NE,45,1.3,2.2,45,0.00,,,0.00,WUHU216HW,2013-06-09 01:27:00,
2013-06-08 20:32:00,64.3,42.9,30.00,NNE,18,1.4,2.2,46,0.00,,,0.00,WUHU216HW,2013-06-09 01:32:00,
2013-06-08 20:37:00,64.1,42.8,30.00,NNE,30,0.6,2.2,46,0.00,,,0.00,WUHU216HW,2013-06-09 01:37:00,
2013-06-08 20:42:00,63.9,43.1,30.00,NNE,23,2.2,2.2,47,0.00,,,0.00,WUHU216HW,2013-06-09 01:42:00,
2013-06-08 20:47:00,63.7,43.0,30.00,NNE,23,0.4,2.2,47,0.00,,,0.00,WUHU216HW,2013-06-09 01:47:00,
2013-06-08 20:52:00,63.7,43.0,30.01,NNE,23,0.4,2.2,47,0.00,,,0.00,WUHU216HW,2013-06-09 01:52:00,
2013-06-08 20:57:00,63.5,42.9,30.01,North,0,1.1,1.9,47,0.00,,,0.00,WUHU216HW,2013-06-09 01:57:00,
2013-06-08 21:02:00,63.4,43.2,30.01,North,0,0.8,2.2,48,0.00,,,0.00,WUHU216HW,2013-06-09 02:02:00,
2013-06-08 21:07:00,63.2,43.7,30.01,NNE,23,0.3,2.2,49,0.00,,,0.00,WUHU216HW,2013-06-09 02:07:00,
2013-06-08 21:12:00,63.0,43.5,30.01,East,81,0.6,2.2,49,0.00,,,0.00,WUHU216HW,2013-06-09 02:12:00,
2013-06-08 21:17:00,62.8,43.3,30.01,North,0,1.0,1.6,49,0.00,,,0.00,WUHU216HW,2013-06-09 02:17:00,
2013-06-08 21:22:00,62.6,43.7,30.01,NNE,23,0.8,1.6,50,0.00,,,0.00,WUHU216HW,2013-06-09 02:22:00,
2013-06-08 21:27:00,62.5,43.6,30.01,NNE,23,0.2,0.8,50,0.00,,,0.00,WUHU216HW,2013-06-09 02:27:00,
2013-06-08 21:32:00,62.3,43.9,30.01,ENE,68,0.0,1.1,51,0.00,,,0.00,WUHU216HW,2013-06-09 02:32:00,
2013-06-08 21:37:00,62.1,44.2,30.01,NE,45,0.5,1.3,52,0.00,,,0.00,WUHU216HW,2013-06-09 02:37:00,
2013-06-08 21:42:00,61.9,44.1,30.01,NE,45,0.0,1.3,52,0.00,,,0.00,WUHU216HW,2013-06-09 02:42:00,
2013-06-08 21:47:00,61.9,44.6,30.01,NE,45,0.0,0.5,53,0.00,,,0.00,WUHU216HW,2013-06-09 02:47:00,
2013-06-08 21:52:00,61.7,44.9,30.01,NE,45,0.0,0.5,54,0.00,,,0.00,WUHU216HW,2013-06-09 02:52:00,
2013-06-08 21:57:00,61.6,45.2,30.01,ENE,68,0.5,0.5,55,0.00,,,0.00,WUHU216HW,2013-06-09 02:57:00,
2013-06-08 22:02:00,61.4,45.0,30.01,NNE,23,0.5,1.3,55,0.00,,,0.00,WUHU216HW,2013-06-09 03:02:00,
2013-06-08 22:07:00,61.4,45.6,30.02,NNE,23,0.6,1.3,56,0.00,,,0.00,WUHU216HW,2013-06-09 03:07:00,
2013-06-08 22:12:00,61.2,45.8,30.02,NNE,23,0.5,0.8,57,0.00,,,0.00,WUHU216HW,2013-06-09 03:12:00,
2013-06-08 22:17:00,61.2,45.8,30.01,NNE,23,0.5,0.8,57,0.00,,,0.00,WUHU216HW,2013-06-09 03:17:00,
2013-06-08 22:22:00,61.0,46.2,30.01,NE,45,0.7,1.3,58,0.00,,,0.00,WUHU216HW,2013-06-09 03:22:00,
2013-06-08 22:27:00,60.8,46.5,30.01,NE,45,0.5,1.3,59,0.00,,,0.00,WUHU216HW,2013-06-09 03:27:00,
2013-06-08 22:32:00,60.8,46.5,30.01,NE,45,0.4,0.5,59,0.00,,,0.00,WUHU216HW,2013-06-09 03:32:00,
2013-06-08 22:37:00,60.7,46.8,30.02,NE,45,0.0,0.5,60,0.00,,,0.00,WUHU216HW,2013-06-09 03:37:00,
2013-06-08 22:42:00,60.5,47.1,30.02,NE,45,0.5,0.5,61,0.00,,,0.00,WUHU216HW,2013-06-09 03:42:00,
2013-06-08 22:47:00,60.5,47.1,30.01,NE,45,0.0,0.5,61,0.00,,,0.00,WUHU216HW,2013-06-09 03:47:00,
2013-06-08 22:52:00,60.3,47.3,30.01,NE,45,0.0,0.5,62,0.00,,,0.00,WUHU216HW,2013-06-09 03:52:00,
2013-06-08 22:57:00,60.1,47.5,30.01,ENE,68,0.8,0.8,63,0.00,,,0.00,WUHU216HW,2013-06-09 03:57:00,
2013-06-08 23:01:00,60.1,47.5,30.01,ENE,68,0.4,1.3,63,0.00,,,0.00,WUHU216HW,2013-06-09 04:01:00,
2013-06-08 23:06:00,60.1,47.9,30.01,ENE,68,0.6,1.3,64,0.00,,,0.00,WUHU216HW,2013-06-09 04:06:00,
2013-06-08 23:11:00,60.5,48.2,30.01,ENE,68,0.7,1.1,64,0.00,,,0.00,WUHU216HW,2013-06-09 04:11:00,
2013-06-08 23:16:00,60.7,48.4,30.02,ENE,68,0.5,1.1,64,0.00,,,0.00,WUHU216HW,2013-06-09 04:16:00,
2013-06-08 23:21:00,60.8,48.6,30.02,ENE,68,1.3,1.3,64,0.00,,,0.00,WUHU216HW,2013-06-09 04:21:00,
2013-06-08 23:26:00,61.2,49.0,30.01,ENE,68,0.5,1.3,64,0.00,,,0.00,WUHU216HW,2013-06-09 04:26:00,
2013-06-08 23:31:00,61.2,48.5,30.01,ENE,68,0.6,1.3,63,0.00,,,0.00,WUHU216HW,2013-06-09 04:31:00,
2013-06-08 23:36:00,61.2,49.0,30.01,ENE,68,0.6,1.1,64,0.00,,,0.00,WUHU216HW,2013-06-09 04:36:00,
2013-06-08 23:41:00,61.2,49.0,30.01,ENE,71,0.7,1.3,64,0.00,,,0.00,WUHU216HW,2013-06-09 04:41:00,
2013-06-08 23:46:00,61.2,49.0,30.01,ENE,68,0.0,1.3,64,0.00,,,0.00,WUHU216HW,2013-06-09 04:46:00,
2013-06-08 23:51:00,61.4,49.2,30.01,ENE,68,0.5,1.3,64,0.00,,,0.00,WUHU216HW,2013-06-09 04:51:00,
2013-06-08 23:56:00,61.2,49.0,30.02,ENE,68,0.0,0.5,64,0.00,,,0.00,WUHU216HW,2013-06-09 04:56:00,